RYR86DZ EBCI-LFMU

Flight info

Callsign RYR86DZ
Flight time 1h 31m
Altitude 19000
Route CIV Y50 IDOKO/N0336F170 Y50 MATIX/N0345F190 Y50 REM B3 VATRI G40 TRO B373 MOU A27 MINPA/N0336F180 A27 MOKDI/N0340F190 A27 MEN J27 AFRIC
Aircraft B738/M-SDE3FGILRWY/SB1

Departure

Time 2026-04-23 12:19
Airport Brussels South Charleroi Airport (EBCI)

Arrival

Time 2026-04-23 13:50
Airport Béziers Vias airport (LFMU)
Time Latitude Longitude Altitude Speed Heading
2026-04-23 11:34 50.46806 4.46875 620 ft 0 kts 336°
2026-04-23 12:10 50.46799 4.46880 626 ft 4 kts 336°
2026-04-23 12:11 50.46778 4.46894 627 ft 2 kts 335°
2026-04-23 12:11 50.46761 4.46914 625 ft 4 kts 276°
2026-04-23 12:11 50.46766 4.46948 627 ft 4 kts 245°
2026-04-23 12:11 50.46771 4.46966 625 ft 0 kts 245°
2026-04-23 12:13 50.46771 4.46965 625 ft 0 kts 245°
2026-04-23 12:14 50.46764 4.46940 627 ft 10 kts 245°
2026-04-23 12:14 50.46721 4.46797 620 ft 16 kts 235°
2026-04-23 12:14 50.46627 4.46803 621 ft 13 kts 179°
2026-04-23 12:14 50.46574 4.46687 619 ft 16 kts 246°
2026-04-23 12:15 50.46520 4.46497 622 ft 22 kts 245°
2026-04-23 12:15 50.46450 4.46260 620 ft 25 kts 245°
2026-04-23 12:15 50.46382 4.46026 620 ft 23 kts 246°
2026-04-23 12:15 50.46317 4.45801 617 ft 22 kts 245°
2026-04-23 12:16 50.46254 4.45584 615 ft 22 kts 245°
2026-04-23 12:16 50.46192 4.45372 625 ft 21 kts 245°
2026-04-23 12:16 50.46132 4.45167 620 ft 20 kts 245°
2026-04-23 12:16 50.46074 4.44967 622 ft 21 kts 245°
2026-04-23 12:17 50.46012 4.44750 620 ft 23 kts 245°
2026-04-23 12:17 50.45955 4.44553 617 ft 16 kts 245°
2026-04-23 12:17 50.45896 4.44402 622 ft 17 kts 232°
2026-04-23 12:17 50.45812 4.44229 613 ft 25 kts 232°
2026-04-23 12:18 50.45702 4.44007 625 ft 20 kts 224°
2026-04-23 12:18 50.45643 4.44103 613 ft 20 kts 69°
2026-04-23 12:18 50.45803 4.44652 619 ft 98 kts 65°
2026-04-23 12:18 50.46185 4.45965 801 ft 151 kts 63°
2026-04-23 12:19 50.46613 4.47415 1857 ft 146 kts 65°
2026-04-23 12:19 50.47092 4.48881 2613 ft 166 kts 47°
2026-04-23 12:19 50.48242 4.49726 3022 ft 199 kts 17°
2026-04-23 12:19 50.49476 4.50903 3275 ft 221 kts 57°
2026-04-23 12:20 50.50160 4.53051 4018 ft 225 kts 56°
2026-04-23 12:20 50.51391 4.54564 4884 ft 231 kts 26°
2026-04-23 12:20 50.52941 4.55083 5672 ft 239 kts
2026-04-23 12:20 50.54567 4.54407 6459 ft 250 kts 334°
2026-04-23 12:21 50.55838 4.52501 7245 ft 261 kts 303°
2026-04-23 12:21 50.56450 4.49732 7905 ft 282 kts 280°
2026-04-23 12:21 50.56594 4.46599 8803 ft 292 kts 273°
2026-04-23 12:21 50.56620 4.43367 9850 ft 298 kts 271°
2026-04-23 12:22 50.56622 4.42264 10241 ft 299 kts 271°
2026-04-23 12:22 50.56627 4.39764 10954 ft 306 kts 271°
2026-04-23 12:22 50.56646 4.36271 11347 ft 335 kts 271°
2026-04-23 12:22 50.56683 4.32499 11993 ft 351 kts 272°
2026-04-23 12:23 50.56729 4.28624 12989 ft 356 kts 272°
2026-04-23 12:23 50.56786 4.24735 14198 ft 356 kts 271°
2026-04-23 12:23 50.56847 4.20813 15215 ft 359 kts 271°
2026-04-23 12:23 50.56909 4.16872 16311 ft 362 kts 271°
2026-04-23 12:24 50.56973 4.12867 17188 ft 372 kts 270°
2026-04-23 12:24 50.57036 4.08791 18239 ft 375 kts 270°
2026-04-23 12:24 50.57100 4.04647 19068 ft 383 kts 270°
2026-04-23 12:24 50.57162 4.00431 19944 ft 387 kts 269°
2026-04-23 12:25 50.57192 3.96178 20809 ft 391 kts 265°
2026-04-23 12:25 50.56547 3.92053 21611 ft 391 kts 242°
2026-04-23 12:25 50.55003 3.88567 22468 ft 389 kts 222°
2026-04-23 12:25 50.52818 3.86094 23294 ft 388 kts 203°
2026-04-23 12:26 50.50253 3.84828 24065 ft 388 kts 186°
2026-04-23 12:26 50.47557 3.84837 24748 ft 388 kts 172°
2026-04-23 12:26 50.44875 3.85326 25468 ft 389 kts 170°
2026-04-23 12:26 50.42180 3.85866 26155 ft 392 kts 170°
2026-04-23 12:27 50.41264 3.86045 26385 ft 393 kts 170°
2026-04-23 12:27 50.39141 3.86440 26902 ft 395 kts 171°
2026-04-23 12:27 50.36400 3.86919 27551 ft 398 kts 171°
2026-04-23 12:27 50.33638 3.87385 28217 ft 400 kts 171°
2026-04-23 12:28 50.30865 3.87851 28863 ft 402 kts 170°
2026-04-23 12:28 50.28075 3.88322 29457 ft 405 kts 170°
2026-04-23 12:28 50.25264 3.88797 30047 ft 407 kts 170°
2026-04-23 12:28 50.22451 3.89271 30768 ft 405 kts 170°
2026-04-23 12:29 50.19668 3.89738 31512 ft 400 kts 169°
2026-04-23 12:29 50.16908 3.90202 32177 ft 398 kts 169°
2026-04-23 12:29 50.14155 3.90666 32770 ft 398 kts 169°
2026-04-23 12:29 50.11407 3.91129 33419 ft 396 kts 169°
2026-04-23 12:30 50.08676 3.91587 34103 ft 393 kts 169°
2026-04-23 12:30 50.05963 3.92046 34670 ft 392 kts 169°
2026-04-23 12:30 50.03247 3.92507 35090 ft 393 kts 169°
2026-04-23 12:30 50.00514 3.92973 35380 ft 398 kts 170°
2026-04-23 12:31 49.95035 3.93901 35380 ft 397 kts 170°
2026-04-23 12:31 49.89553 3.94824 35388 ft 397 kts 170°
2026-04-23 12:32 49.86605 3.95321 35385 ft 397 kts 170°
2026-04-23 12:32 49.81107 3.96246 35378 ft 398 kts 170°
2026-04-23 12:33 49.75606 3.97172 35373 ft 398 kts 170°
2026-04-23 12:33 49.70104 3.98099 35367 ft 398 kts 170°
2026-04-23 12:34 49.64601 3.99025 35380 ft 398 kts 169°
2026-04-23 12:34 49.59092 3.99949 35362 ft 398 kts 169°
2026-04-23 12:35 49.53586 4.00868 35365 ft 398 kts 170°
2026-04-23 12:35 49.48082 4.01781 35357 ft 398 kts 170°
2026-04-23 12:36 49.42581 4.02692 35370 ft 398 kts 169°
2026-04-23 12:36 49.37075 4.03601 35364 ft 398 kts 170°
2026-04-23 12:37 49.34063 4.04070 35360 ft 398 kts 170°
2026-04-23 12:37 49.28527 4.04704 35347 ft 400 kts 174°
2026-04-23 12:38 49.22951 4.04745 35367 ft 401 kts 175°
2026-04-23 12:38 49.18312 4.04794 35344 ft 401 kts 175°
2026-04-23 12:39 49.11818 4.04945 35348 ft 402 kts 175°
2026-04-23 12:39 49.06230 4.05094 35350 ft 402 kts 175°
2026-04-23 12:40 49.01543 4.05219 35344 ft 402 kts 175°
2026-04-23 12:40 48.95946 4.05367 35345 ft 403 kts 175°
2026-04-23 12:41 48.90341 4.05513 35344 ft 403 kts 175°
2026-04-23 12:41 48.84731 4.05659 35348 ft 403 kts 175°
2026-04-23 12:42 48.81648 4.05739 35345 ft 403 kts 175°
2026-04-23 12:42 48.76036 4.05867 35347 ft 403 kts 175°
2026-04-23 12:43 48.70423 4.05957 35347 ft 403 kts 175°
2026-04-23 12:43 48.64810 4.06048 35342 ft 403 kts 175°
2026-04-23 12:44 48.59203 4.06144 35340 ft 403 kts 175°
2026-04-23 12:44 48.53593 4.05559 35328 ft 409 kts 188°
2026-04-23 12:45 48.48015 4.03700 35317 ft 411 kts 188°
2026-04-23 12:45 48.42424 4.01847 35318 ft 412 kts 188°
2026-04-23 12:46 48.36820 4.00040 35324 ft 412 kts 188°
2026-04-23 12:46 48.31195 3.98244 35321 ft 414 kts 188°
2026-04-23 12:47 48.28022 3.97232 35329 ft 415 kts 188°
2026-04-23 12:47 48.22350 3.95589 35319 ft 415 kts 185°
2026-04-23 12:48 48.16635 3.94393 35315 ft 415 kts 184°
2026-04-23 12:48 48.10949 3.93212 35307 ft 416 kts 185°
2026-04-23 12:49 48.05208 3.91969 35306 ft 417 kts 185°
2026-04-23 12:49 47.99455 3.90716 35296 ft 418 kts 185°
2026-04-23 12:50 47.93695 3.89459 35300 ft 418 kts 186°
2026-04-23 12:50 47.87916 3.88200 35291 ft 421 kts 186°
2026-04-23 12:51 47.82105 3.86938 35289 ft 423 kts 186°
2026-04-23 12:51 47.76271 3.85674 35286 ft 424 kts 186°
2026-04-23 12:52 47.73065 3.84979 35282 ft 425 kts 186°
2026-04-23 12:52 47.67204 3.83712 35280 ft 426 kts 187°
2026-04-23 12:53 47.61330 3.82447 35280 ft 427 kts 187°
2026-04-23 12:53 47.55440 3.81178 35275 ft 428 kts 185°
2026-04-23 12:54 47.49546 3.79909 35269 ft 429 kts 187°
2026-04-23 12:54 47.43614 3.78628 35279 ft 432 kts 187°
2026-04-23 12:55 47.37648 3.77341 35274 ft 434 kts 187°
2026-04-23 12:55 47.31655 3.76054 35265 ft 436 kts 188°
2026-04-23 12:56 47.25646 3.74766 35265 ft 437 kts 188°
2026-04-23 12:56 47.19626 3.73477 35263 ft 437 kts 188°
2026-04-23 12:57 47.16857 3.72886 35264 ft 437 kts 188°
2026-04-23 12:57 47.10834 3.71602 35263 ft 437 kts 188°
2026-04-23 12:58 47.04814 3.70321 35260 ft 437 kts 188°
2026-04-23 12:58 46.98796 3.69043 35258 ft 437 kts 188°
2026-04-23 12:59 46.92826 3.67780 35261 ft 436 kts 188°
2026-04-23 12:59 46.86806 3.66528 35254 ft 438 kts 189°
2026-04-23 13:00 46.80762 3.65279 35265 ft 439 kts 189°
2026-04-23 13:00 46.74693 3.64025 35262 ft 441 kts 189°
2026-04-23 13:01 46.68665 3.62399 35255 ft 440 kts 199°
2026-04-23 13:01 46.62879 3.59485 35253 ft 440 kts 201°
2026-04-23 13:02 46.60077 3.58049 35255 ft 440 kts 201°
2026-04-23 13:02 46.54280 3.55176 35250 ft 440 kts 200°
2026-04-23 13:03 46.48480 3.52365 35240 ft 440 kts 201°
2026-04-23 13:03 46.42673 3.49579 35249 ft 440 kts 201°
2026-04-23 13:04 46.36856 3.46795 35229 ft 441 kts 201°
2026-04-23 13:04 46.31028 3.44008 35210 ft 441 kts 202°
2026-04-23 13:05 46.25186 3.41219 35215 ft 443 kts 202°
2026-04-23 13:05 46.19328 3.38429 35211 ft 444 kts 202°
2026-04-23 13:06 46.10561 3.34259 35197 ft 445 kts 202°
2026-04-23 13:07 46.06627 3.32391 35209 ft 445 kts 202°
2026-04-23 13:07 46.01867 3.30132 35221 ft 445 kts 202°
2026-04-23 13:08 45.95979 3.27345 35214 ft 445 kts 202°
2026-04-23 13:08 45.90093 3.24565 35205 ft 445 kts 203°
2026-04-23 13:09 45.84210 3.21792 35218 ft 445 kts 203°
2026-04-23 13:09 45.78248 3.19308 35205 ft 451 kts 194°
2026-04-23 13:10 45.71943 3.18848 35196 ft 456 kts 184°
2026-04-23 13:10 45.65591 3.18804 34934 ft 456 kts 184°
2026-04-23 13:10 45.62448 3.18768 34617 ft 448 kts 185°
2026-04-23 13:11 45.59354 3.18716 34257 ft 442 kts 185°
2026-04-23 13:11 45.56290 3.18650 33840 ft 438 kts 185°
2026-04-23 13:11 45.53262 3.18577 33435 ft 433 kts 185°
2026-04-23 13:11 45.50262 3.18500 33059 ft 429 kts 185°
2026-04-23 13:12 45.49259 3.18475 32939 ft 427 kts 185°
2026-04-23 13:12 45.47603 3.18432 32735 ft 425 kts 185°
2026-04-23 13:12 45.44666 3.18357 32375 ft 421 kts 185°
2026-04-23 13:12 45.41747 3.18282 32004 ft 418 kts 185°
2026-04-23 13:13 45.38853 3.18209 31667 ft 414 kts 185°
2026-04-23 13:13 45.35979 3.18137 31313 ft 412 kts 185°
2026-04-23 13:13 45.33125 3.18065 30946 ft 409 kts 186°
2026-04-23 13:13 45.30291 3.17995 30607 ft 406 kts 186°
2026-04-23 13:14 45.27478 3.17925 30269 ft 403 kts 186°
2026-04-23 13:14 45.24682 3.17856 29884 ft 401 kts 186°
2026-04-23 13:14 45.21906 3.17787 29489 ft 398 kts 186°
2026-04-23 13:14 45.19156 3.17719 29144 ft 393 kts 186°
2026-04-23 13:15 45.16431 3.17651 28767 ft 390 kts 186°
2026-04-23 13:15 45.13722 3.17584 28395 ft 388 kts 186°
2026-04-23 13:15 45.11027 3.17517 28064 ft 387 kts 186°
2026-04-23 13:15 45.08315 3.17417 27716 ft 395 kts 187°
2026-04-23 13:16 45.05543 3.17259 27357 ft 401 kts 187°
2026-04-23 13:16 45.02771 3.17094 26980 ft 397 kts 187°
2026-04-23 13:16 45.00025 3.16937 26610 ft 393 kts 187°
2026-04-23 13:16 44.97305 3.16788 26248 ft 389 kts 187°
2026-04-23 13:17 44.96432 3.16741 26138 ft 388 kts 186°
2026-04-23 13:17 44.94857 3.16666 25929 ft 386 kts 185°
2026-04-23 13:17 44.92194 3.16604 25651 ft 380 kts 185°
2026-04-23 13:17 44.89561 3.16574 25312 ft 377 kts 184°
2026-04-23 13:18 44.86953 3.16552 24985 ft 374 kts 184°
2026-04-23 13:18 44.84358 3.16527 24646 ft 371 kts 184°
2026-04-23 13:18 44.81784 3.16497 24315 ft 369 kts 184°
2026-04-23 13:18 44.79216 3.16464 23944 ft 369 kts 184°
2026-04-23 13:19 44.76659 3.16428 23566 ft 366 kts 184°
2026-04-23 13:19 44.74151 3.16392 23202 ft 363 kts 184°
2026-04-23 13:19 44.71637 3.16356 22841 ft 360 kts 184°
2026-04-23 13:19 44.69144 3.16321 22497 ft 356 kts 184°
2026-04-23 13:20 44.66680 3.16285 22162 ft 353 kts 184°
2026-04-23 13:20 44.64237 3.16250 21837 ft 349 kts 184°
2026-04-23 13:20 44.61819 3.16211 21519 ft 346 kts 185°
2026-04-23 13:20 44.59466 3.15811 21320 ft 334 kts 197°
2026-04-23 13:21 44.57234 3.15036 21094 ft 330 kts 198°
2026-04-23 13:21 44.55012 3.14225 20801 ft 330 kts 198°
2026-04-23 13:21 44.52779 3.13404 20496 ft 336 kts 198°
2026-04-23 13:21 44.50487 3.12566 20176 ft 344 kts 198°
2026-04-23 13:22 44.49704 3.12282 20076 ft 344 kts 198°
2026-04-23 13:22 44.48433 3.11824 19891 ft 344 kts 198°
2026-04-23 13:22 44.46127 3.11000 19554 ft 340 kts 198°
2026-04-23 13:22 44.43844 3.10189 19220 ft 337 kts 197°
2026-04-23 13:23 44.41581 3.09387 18898 ft 334 kts 197°
2026-04-23 13:23 44.39338 3.08594 18572 ft 331 kts 197°
2026-04-23 13:23 44.37114 3.07808 18201 ft 328 kts 197°
2026-04-23 13:23 44.34910 3.07030 17853 ft 325 kts 197°
2026-04-23 13:24 44.32727 3.06261 17522 ft 322 kts 197°
2026-04-23 13:24 44.30569 3.05500 17204 ft 318 kts 197°
2026-04-23 13:24 44.28434 3.04748 16874 ft 315 kts 197°
2026-04-23 13:24 44.26320 3.04005 16567 ft 312 kts 197°
2026-04-23 13:25 44.24221 3.03267 16262 ft 311 kts 198°
2026-04-23 13:25 44.22118 3.02525 15956 ft 314 kts 198°
2026-04-23 13:25 44.19988 3.01775 15654 ft 317 kts 196°
2026-04-23 13:25 44.17838 3.01021 15336 ft 320 kts 197°
2026-04-23 13:26 44.15689 3.00267 15010 ft 317 kts 195°
2026-04-23 13:26 44.13563 2.99524 14707 ft 313 kts 196°
2026-04-23 13:26 44.12165 2.99035 14493 ft 312 kts 197°
2026-04-23 13:26 44.10072 2.98301 14207 ft 308 kts 196°
2026-04-23 13:27 44.08702 2.97823 14010 ft 306 kts 195°
2026-04-23 13:27 44.08254 2.97667 13918 ft 305 kts 197°
2026-04-23 13:27 44.06198 2.96952 13625 ft 301 kts 195°
2026-04-23 13:27 44.04170 2.96240 13309 ft 298 kts 196°
2026-04-23 13:28 44.02168 2.95551 12985 ft 296 kts 194°
2026-04-23 13:28 44.00088 2.95608 12378 ft 305 kts 168°
2026-04-23 13:28 43.98035 2.96359 11991 ft 304 kts 164°
2026-04-23 13:28 43.96015 2.97162 11670 ft 302 kts 164°
2026-04-23 13:29 43.93994 2.97958 11335 ft 300 kts 165°
2026-04-23 13:29 43.92003 2.98720 11044 ft 296 kts 165°
2026-04-23 13:29 43.90023 2.99459 10703 ft 294 kts 165°
2026-04-23 13:29 43.88062 3.00177 10449 ft 290 kts 165°
2026-04-23 13:30 43.86131 3.00873 10265 ft 283 kts 165°
2026-04-23 13:30 43.84232 3.01551 9906 ft 282 kts 165°
2026-04-23 13:30 43.82342 3.02223 9656 ft 278 kts 165°
2026-04-23 13:30 43.80499 3.02876 9482 ft 270 kts 165°
2026-04-23 13:31 43.78690 3.03516 9229 ft 266 kts 165°
2026-04-23 13:31 43.76910 3.04144 8980 ft 262 kts 165°
2026-04-23 13:31 43.75161 3.04760 8741 ft 257 kts 165°
2026-04-23 13:31 43.73437 3.05366 8494 ft 254 kts 164°
2026-04-23 13:32 43.71733 3.05965 8234 ft 252 kts 165°
2026-04-23 13:32 43.70051 3.06554 8017 ft 247 kts 165°
2026-04-23 13:32 43.68386 3.07140 7740 ft 246 kts 163°
2026-04-23 13:32 43.66737 3.07717 7504 ft 244 kts 164°
2026-04-23 13:33 43.65098 3.08292 7248 ft 242 kts 164°
2026-04-23 13:33 43.63502 3.08851 7029 ft 237 kts 163°
2026-04-23 13:33 43.61913 3.09407 6791 ft 235 kts 163°
2026-04-23 13:33 43.60336 3.09960 6537 ft 233 kts 163°
2026-04-23 13:34 43.58774 3.10506 6314 ft 231 kts 163°
2026-04-23 13:34 43.57222 3.11049 6011 ft 228 kts 163°
2026-04-23 13:34 43.55700 3.11580 5826 ft 226 kts 163°
2026-04-23 13:34 43.54139 3.12129 5585 ft 238 kts 163°
2026-04-23 13:35 43.52496 3.12705 5245 ft 249 kts 164°
2026-04-23 13:35 43.50808 3.13291 4835 ft 249 kts 164°
2026-04-23 13:35 43.49136 3.13878 4527 ft 247 kts 164°
2026-04-23 13:35 43.47449 3.14242 4235 ft 248 kts 181°
2026-04-23 13:36 43.45760 3.13909 4112 ft 241 kts 186°
2026-04-23 13:36 43.44147 3.13575 4009 ft 226 kts 184°
2026-04-23 13:36 43.42632 3.13275 3766 ft 217 kts 184°
2026-04-23 13:36 43.41145 3.12989 3350 ft 215 kts 185°
2026-04-23 13:37 43.39677 3.12708 2957 ft 212 kts 184°
2026-04-23 13:37 43.38221 3.12429 2552 ft 211 kts 182°
2026-04-23 13:37 43.36740 3.12150 2534 ft 219 kts 183°
2026-04-23 13:37 43.35283 3.12326 2509 ft 206 kts 152°
2026-04-23 13:38 43.34337 3.13716 2504 ft 203 kts 116°
2026-04-23 13:38 43.33803 3.15441 2489 ft 186 kts 115°
2026-04-23 13:38 43.33487 3.17051 2492 ft 165 kts 103°
2026-04-23 13:38 43.33336 3.18556 2302 ft 153 kts 101°
2026-04-23 13:39 43.33229 3.19956 2125 ft 146 kts 101°
2026-04-23 13:39 43.33138 3.21361 1950 ft 148 kts 99°
2026-04-23 13:39 43.33053 3.22752 1757 ft 145 kts 98°
2026-04-23 13:39 43.32976 3.24103 1548 ft 138 kts 98°
2026-04-23 13:40 43.32904 3.25369 1372 ft 130 kts 98°
2026-04-23 13:40 43.32835 3.26587 1192 ft 127 kts 98°
2026-04-23 13:40 43.32764 3.27821 1039 ft 132 kts 97°
2026-04-23 13:40 43.32693 3.29077 849 ft 132 kts 96°
2026-04-23 13:41 43.32623 3.30324 684 ft 136 kts 95°
2026-04-23 13:41 43.32548 3.31605 520 ft 135 kts 97°
2026-04-23 13:41 43.32478 3.32940 328 ft 144 kts 97°
2026-04-23 13:41 43.32408 3.34258 104 ft 134 kts 98°
2026-04-23 13:42 43.32342 3.35425 76 ft 118 kts 100°
2026-04-23 13:42 43.32254 3.36699 648 ft 128 kts 98°
2026-04-23 13:42 43.32205 3.37929 1378 ft 141 kts 95°
2026-04-23 13:42 43.32177 3.39541 1761 ft 205 kts 94°
2026-04-23 13:43 43.32140 3.41511 1866 ft 206 kts 96°
2026-04-23 13:43 43.31696 3.43339 2045 ft 205 kts 127°
2026-04-23 13:43 43.30515 3.44419 2497 ft 210 kts 160°
2026-04-23 13:43 43.29047 3.44477 2518 ft 214 kts 185°
2026-04-23 13:44 43.27629 3.43802 2465 ft 223 kts 208°
2026-04-23 13:44 43.26630 3.42143 2506 ft 236 kts 242°
2026-04-23 13:44 43.26372 3.39913 2511 ft 241 kts 267°
2026-04-23 13:44 43.26452 3.37614 2502 ft 241 kts 270°
2026-04-23 13:45 43.26554 3.35312 2491 ft 242 kts 270°
2026-04-23 13:45 43.26657 3.33001 2505 ft 243 kts 270°
2026-04-23 13:45 43.26760 3.30669 2507 ft 246 kts 270°
2026-04-23 13:45 43.26869 3.28328 2497 ft 246 kts 270°
2026-04-23 13:46 43.26988 3.25998 2485 ft 244 kts 270°
2026-04-23 13:46 43.27145 3.23687 2494 ft 244 kts 279°
2026-04-23 13:46 43.27908 3.21613 2496 ft 247 kts 312°
2026-04-23 13:46 43.29301 3.20387 2490 ft 233 kts 346°
2026-04-23 13:47 43.30851 3.20202 2498 ft 219 kts 12°
2026-04-23 13:47 43.32220 3.21005 2063 ft 220 kts 50°
2026-04-23 13:47 43.32869 3.22754 1727 ft 193 kts 83°
2026-04-23 13:47 43.32914 3.24477 1479 ft 172 kts 95°
2026-04-23 13:48 43.32857 3.26028 1303 ft 153 kts 96°
2026-04-23 13:48 43.32784 3.27439 1098 ft 145 kts 97°
2026-04-23 13:48 43.32709 3.28814 886 ft 142 kts 95°
2026-04-23 13:48 43.32630 3.30139 706 ft 136 kts 96°
2026-04-23 13:49 43.32556 3.31429 520 ft 142 kts 96°
2026-04-23 13:49 43.32490 3.32786 312 ft 141 kts 98°
2026-04-23 13:49 43.32418 3.34077 125 ft 132 kts 98°
2026-04-23 13:49 43.32349 3.35259 57 ft 104 kts 95°
2026-04-23 13:50 43.32314 3.35917 52 ft 35 kts 94°
2026-04-23 13:50 43.32295 3.36068 46 ft 1 kts 103°
2026-04-23 13:50 43.32309 3.36060 49 ft 5 kts 289°
2026-04-23 13:50 43.32313 3.35956 51 ft 19 kts 272°
2026-04-23 13:51 43.32320 3.35743 53 ft 24 kts 274°
2026-04-23 13:51 43.32332 3.35514 54 ft 23 kts 274°
2026-04-23 13:51 43.32323 3.35347 58 ft 14 kts 224°
2026-04-23 13:51 43.32236 3.35328 58 ft 6 kts 184°
2026-04-23 13:52 43.32212 3.35326 58 ft 1 kts 184°
2026-04-23 13:52 43.32207 3.35325 58 ft 0 kts 184°
2026-04-23 13:53 43.32188 3.35334 54 ft 6 kts 145°
2026-04-23 13:53 43.32173 3.35405 57 ft 3 kts 109°
2026-04-23 13:54 43.32145 3.35419 55 ft 3 kts 182°
2026-04-23 13:54 43.32132 3.35419 57 ft 0 kts 182°
2026-04-23 13:55 43.32140 3.35388 57 ft 0 kts 147°
2026-04-23 13:55 43.32143 3.35315 57 ft 0 kts 127°